Temperature
15 12 12 13 13 14 14 13 12 11 8 7 6 6 4 4 3 3 3 4 3 3 2 2 1 -0 -1 -1 -1 -0 -0 -1 -1 -2 -3 -3 -4 -5 -5 -6 -7 -7 -8 -9
13 13 13 13 13 13 13 13 12 10 8 8 6 5 4 3 3 3 4 4 3 3 2 1 0 -1 -1 -1 -0 -0 -1 -2 -3 -4 -4 -5 -5 -5 -6 -7 -7 -8 -9 -9
15 13 13 13 13 13 13 13 12 11 8 7 7 6 4 3 3 3 4 4 3 3 2 1 -0 -1 -1 -1 -1 -1 -2 -3 -3 -4 -5 -5 -5 -5 -6 -7 -8 -9 -10 -10
13 12 13 13 13 13 13 12 11 10 9 7 8 7 6 3 2 2 3 3 3 2 1 0 -0 -1 -1 -1 -1 -2 -2 -3 -4 -4 -5 -5 -6 -7 -7 -8 -9 -10 -10 -11
13 12 13 13 12 12 12 11 10 9 9 8 7 7 6 3 2 2 2 3 3 2 1 0 -1 -1 -1 -1 -1 -2 -3 -3 -4 -5 -5 -6 -7 -8 -8 -9 -10 -10 -11 -11
12 13 12 12 12 12 11 10 9 7 7 9 9 7 8 3 3 2 2 3 2 1 1 0 -1 -1 -1 -2 -2 -2 -3 -4 -4 -5 -6 -7 -7 -8 -9 -10 -11 -11 -12 -12
13 13 12 12 12 11 11 11 10 11 10 10 8 7 7 6 3 3 2 2 2 1 0 -0 -1 -1 -1 -1 -2 -2 -3 -4 -5 -5 -6 -7 -8 -9 -10 -11 -12 -12 -12 -12
13 13 12 11 12 11 11 11 11 12 10 8 8 7 6 4 3 3 3 3 2 1 0 -0 -1 -2 -2 -2 -2 -3 -4 -4 -5 -6 -7 -7 -9 -10 -11 -11 -12 -12 -13 -13
12 13 12 11 11 11 11 9 10 8 8 8 7 7 6 2 2 1 1 1 1 1 -0 -1 -2 -2 -2 -2 -3 -4 -4 -5 -5 -6 -7 -8 -9 -10 -11 -12 -12 -12 -12 -12
11 11 11 11 11 10 10 8 7 8 10 9 8 8 8 5 2 -0 -0 0 1 0 -0 -1 -2 -2 -2 -3 -4 -4 -5 -5 -6 -6 -7 -8 -9 -10 -11 -12 -12 -12 -12 -12
10 10 10 11 11 11 10 9 8 6 7 8 7 9 7 6 3 1 0 1 1 0 -1 -1 -2 -2 -2 -3 -4 -4 -5 -5 -6 -6 -7 -8 -9 -10 -11 -12 -12 -12 -12 -12
7 7 9 10 10 10 10 10 7 9 8 6 5 8 6 4 4 3 1 1 1 0 -1 -1 -2 -2 -3 -3 -4 -4 -5 -5 -6 -6 -7 -8 -10 -10 -11 -12 -12 -12 -12 -12
8 8 11 12 11 10 10 9 7 6 6 4 5 8 4 2 2 2 2 1 1 -0 -1 -1 -2 -2 -3 -4 -4 -5 -5 -5 -6 -7 -7 -8 -9 -10 -11 -12 -12 -12 -12 -12
8 7 10 13 12 10 10 9 7 6 6 5 5 7 7 2 1 0 1 1 1 -0 -1 -2 -2 -3 -3 -4 -4 -5 -5 -5 -6 -7 -7 -8 -10 -10 -11 -12 -12 -12 -12 -12
7 7 8 7 7 7 7 7 6 6 6 6 7 6 8 5 2 2 1 0 -0 -1 -1 -2 -2 -3 -3 -4 -4 -5 -5 -5 -6 -7 -7 -8 -9 -10 -11 -11 -12 -12 -12 -12
5 7 7 7 8 7 6 6 6 5 6 5 6 7 6 4 3 1 0 0 -0 -0 -1 -2 -2 -3 -3 -4 -4 -4 -5 -5 -6 -7 -8 -8 -9 -10 -11 -11 -12 -12 -12 -12
5 7 8 8 7 8 9 9 6 6 5 6 7 8 4 1 0 0 1 1 1 0 -1 -2 -2 -3 -3 -4 -4 -4 -5 -5 -6 -7 -7 -8 -9 -10 -11 -11 -12 -12 -12 -12
5 6 6 6 8 12 12 9 7 7 7 5 5 5 3 4 3 3 3 3 1 0 -1 -2 -2 -3 -3 -4 -4 -5 -5 -5 -6 -7 -7 -8 -9 -10 -10 -11 -12 -12 -12 -13
5 5 5 6 8 9 9 8 7 7 8 6 5 5 3 1 1 1 2 2 1 0 -1 -2 -2 -3 -3 -4 -4 -5 -5 -5 -6 -7 -7 -8 -9 -9 -10 -11 -11 -12 -12 -13
3 3 4 5 9 10 12 8 7 8 8 9 7 5 0 -1 -0 2 4 2 0 -1 -1 -2 -2 -3 -3 -4 -4 -5 -5 -5 -6 -7 -8 -8 -9 -9 -10 -10 -11 -11 -12 -13
4 3 4 4 6 8 8 7 7 9 11 12 10 8 3 1 4 5 5 2 1 -0 -1 -2 -2 -3 -3 -4 -4 -5 -5 -5 -6 -7 -7 -8 -9 -9 -10 -10 -11 -11 -11 -12
5 4 3 3 4 8 8 5 6 10 12 12 11 10 8 7 5 4 4 3 1 -0 -1 -1 -2 -2 -3 -4 -4 -4 -5 -5 -6 -7 -7 -8 -8 -9 -9 -10 -10 -10 -11 -11
5 7 6 6 10 12 10 12 15 14 13 12 11 10 9 7 5 4 3 2 1 -0 -1 -1 -2 -2 -3 -3 -4 -4 -5 -5 -6 -6 -7 -7 -8 -9 -9 -10 -10 -10 -10 -11
5 5 5 4 7 10 11 13 14 13 13 12 11 10 9 8 6 5 3 2 1 -0 -1 -1 -2 -2 -3 -3 -4 -4 -5 -5 -5 -6 -6 -7 -7 -8 -8 -9 -10 -10 -10 -11
7 3 4 5 6 10 14 17 17 16 14 12 10 9 8 7 6 5 4 2 1 0 -1 -1 -2 -2 -3 -3 -4 -4 -5 -5 -5 -6 -6 -6 -7 -7 -7 -8 -9 -10 -10 -11
6 5 6 12 13 11 16 17 16 15 14 13 11 9 7 7 6 5 4 3 1 0 -1 -1 -2 -2 -3 -3 -4 -4 -4 -5 -5 -5 -6 -6 -6 -6 -7 -7 -7 -8 -9 -10
Wind_Speed
7 7 4 1 1 1 2 3 3 2 5 7 8 7 7 9 9 10 9 9 8 6 5 5 3 1 4 5 6 6 7 9 12 7 8 8 9 8 12 15 19 21 21 21
8 4 2 2 1 2 3 2 2 0 3 5 4 7 5 8 9 10 12 11 9 6 5 5 3 1 3 5 6 7 8 8 11 9 9 7 8 7 12 15 18 19 21 22
5 1 3 3 5 3 2 2 2 2 2 2 3 7 4 4 5 6 8 8 7 8 8 6 3 2 4 5 7 8 8 8 11 14 12 12 6 4 6 8 8 18 22 21
4 3 2 4 3 3 0 1 2 3 1 4 1 6 5 5 5 7 9 8 8 7 6 4 3 2 4 5 6 7 8 8 11 14 10 11 10 11 11 9 10 19 21 20
2 3 4 3 1 0 1 1 2 3 2 2 0 2 7 3 7 10 10 10 8 8 7 5 2 1 4 5 6 7 7 7 10 12 9 9 9 8 10 9 10 10 16 19
1 0 2 0 0 1 1 4 5 5 4 3 3 4 8 6 8 7 9 10 9 8 6 4 2 3 4 5 5 6 8 8 8 10 9 9 11 11 14 14 12 11 10 14
3 1 2 1 1 4 5 4 6 6 4 5 2 4 9 4 6 6 9 11 9 8 6 4 1 3 5 6 7 7 9 9 9 9 9 10 10 9 12 13 13 14 13 13
3 4 3 3 2 1 2 4 4 3 5 7 2 7 7 1 0 2 6 9 9 8 6 4 1 2 4 6 7 8 9 9 9 10 10 9 8 8 9 12 12 13 12 13
1 4 1 1 1 2 3 3 3 5 2 5 7 8 7 3 1 3 7 8 9 8 7 5 2 1 3 5 6 8 9 9 10 10 10 9 8 10 11 11 11 10 13 18
2 4 4 1 2 3 3 7 5 3 2 6 8 7 6 7 9 8 9 9 9 8 7 5 2 1 3 4 5 7 8 8 9 9 9 11 10 11 12 11 13 13 16 20
1 1 6 3 3 4 4 4 4 4 4 3 6 9 6 7 8 12 13 11 10 9 8 5 2 1 3 5 6 7 8 8 8 9 9 10 10 11 12 10 12 13 15 18
3 3 4 5 0 1 4 5 7 3 4 5 4 9 2 4 6 9 11 10 9 9 7 5 2 1 3 5 6 7 7 8 8 8 9 10 10 10 11 12 12 16 15 18
4 3 4 6 3 1 2 4 5 5 4 5 5 10 1 1 2 5 9 10 9 9 7 4 2 1 3 5 6 7 7 7 8 8 9 10 10 11 12 12 12 15 14 15
5 3 5 6 6 3 5 5 6 6 4 6 10 14 10 6 7 7 9 10 9 9 7 5 3 2 4 5 6 7 7 7 7 8 8 9 10 11 11 11 12 13 14 13
4 3 5 8 6 5 7 9 9 10 10 10 11 11 16 8 10 11 11 10 9 8 7 7 4 3 3 5 6 6 7 7 7 8 8 9 10 10 10 11 11 12 12 14
3 2 3 6 3 4 8 11 10 11 8 10 12 17 10 2 4 9 12 13 11 9 9 7 6 4 4 5 5 6 6 7 7 7 8 9 10 10 11 11 11 12 12 13
4 3 1 5 6 7 9 9 10 8 10 10 11 11 3 4 8 13 15 14 12 10 8 8 7 6 5 5 5 5 6 6 7 7 8 9 9 10 10 11 11 12 11 11
6 4 2 3 8 6 7 1 7 8 10 12 11 10 7 7 4 6 9 13 12 11 10 9 7 6 5 4 4 4 5 5 6 7 8 8 8 9 10 10 10 10 8 10
3 6 4 1 4 10 11 4 7 6 10 9 13 12 3 5 3 3 8 10 11 10 9 8 7 6 4 4 3 4 5 5 6 7 8 8 8 9 9 9 9 8 8 8
5 4 5 4 2 7 8 3 5 3 8 8 10 8 9 9 4 7 11 11 10 9 8 8 7 6 5 4 2 2 4 5 6 7 8 8 7 8 8 8 8 6 7 8
3 3 5 6 7 11 8 6 7 3 8 5 9 10 14 13 8 3 13 11 10 9 8 8 7 6 6 4 2 3 4 5 6 7 7 7 7 8 8 7 6 8 9 10
9 8 8 6 6 10 8 10 11 12 3 6 8 9 13 10 5 8 12 13 13 11 9 8 7 7 5 4 4 4 5 6 6 6 7 8 8 8 8 8 8 8 8 9
10 11 8 12 12 6 12 13 10 6 7 8 8 9 12 10 9 11 11 12 12 12 10 8 8 7 5 5 5 5 5 5 6 6 7 8 8 7 7 7 8 8 7 7
6 6 6 8 15 12 13 13 12 10 10 8 9 10 15 12 13 13 13 13 12 11 10 8 8 7 7 6 6 6 5 5 5 7 7 7 7 8 8 7 7 7 8 8
9 10 7 9 12 11 11 15 17 13 10 8 9 11 16 15 14 15 15 14 13 12 9 9 9 8 8 6 6 5 5 4 5 6 7 7 7 7 8 8 6 8 7 10
9 12 11 13 12 9 10 7 8 11 13 13 12 11 10 14 17 16 14 13 13 12 10 9 9 9 8 7 6 6 5 4 4 6 6 6 6 7 7 8 9 13 13 17
Wind_Direction
19 60 53 331 227 184 154 187 243 259 161 177 222 244 206 186 187 193 203 209 212 206 173 163 174 323 328 314 315 326 350 351 353 347 341 332 329 322 320 325 329 326 326 327
39 55 329 320 341 154 146 164 228 304 152 193 253 262 220 186 198 198 199 204 204 189 180 198 205 273 308 309 323 344 353 344 345 338 326 314 313 307 314 322 323 326 327 326
120 251 327 73 53 80 85 175 229 224 95 78 330 300 195 192 184 194 202 201 195 195 196 204 218 270 301 319 337 349 341 337 338 338 334 332 315 308 325 330 323 329 328 325
71 351 64 75 53 51 348 215 165 148 117 298 347 302 261 200 203 209 205 196 192 185 179 186 205 286 321 333 341 343 337 333 339 343 342 342 346 337 332 329 324 327 327 324
60 24 55 71 8 49 218 70 128 149 171 312 277 223 289 162 237 230 211 199 190 182 173 168 164 344 353 347 342 339 336 334 340 343 340 337 332 324 324 324 321 322 324 323
124 117 93 163 321 56 126 82 70 66 76 307 222 190 279 215 219 225 201 192 184 172 158 145 102 25 350 342 341 343 345 340 337 338 334 330 325 326 329 331 329 329 324 321
0 39 31 8 66 24 58 63 11 354 354 274 176 224 254 239 213 210 194 185 173 163 155 149 74 349 335 340 348 349 347 338 333 331 328 323 320 321 324 327 328 328 326 324
10 313 346 24 94 104 49 108 124 276 278 297 285 248 262 144 32 194 168 156 152 155 155 152 147 316 327 345 350 347 340 332 329 328 327 319 319 326 324 322 323 321 320 317
60 283 348 52 104 127 101 99 142 148 308 289 281 282 299 126 112 131 141 148 162 164 161 162 180 300 342 350 345 337 330 326 325 325 326 324 328 327 324 322 320 320 320 322
115 291 303 344 99 44 80 141 98 111 313 296 293 284 267 238 227 205 189 182 177 168 166 169 197 302 345 345 333 331 323 318 316 322 328 337 328 325 325 324 325 326 324 324
105 203 311 341 200 196 134 118 113 119 163 214 290 279 226 229 215 204 201 189 179 175 175 183 205 309 348 341 333 325 319 317 319 324 327 328 325 326 327 327 327 327 326 328
101 117 291 273 235 69 176 184 157 176 227 198 228 271 252 235 233 199 186 177 171 168 169 177 185 351 345 333 325 319 316 317 319 324 328 328 327 328 329 330 329 331 330 331
135 104 350 348 352 9 213 195 169 136 136 179 210 265 190 129 207 183 171 165 163 163 169 176 184 320 320 315 313 311 313 317 320 328 329 328 329 330 330 329 330 333 334 334
115 140 191 238 257 241 248 213 170 154 194 227 230 258 273 229 219 196 176 168 166 171 176 183 203 256 289 299 301 305 311 318 328 333 330 329 328 328 327 328 332 334 336 338
113 199 247 259 262 241 245 233 200 200 208 217 247 252 272 257 219 198 177 168 171 182 189 194 203 231 268 288 298 304 312 322 331 332 332 329 326 326 328 332 334 335 339 343
109 171 320 294 225 252 265 246 220 223 225 238 264 274 272 289 151 161 172 177 186 193 195 195 200 215 247 270 289 306 313 320 328 330 327 326 330 331 333 334 336 339 340 339
141 133 1 284 301 317 280 241 190 209 211 201 231 252 193 207 196 189 187 188 192 191 190 192 199 211 231 250 273 293 304 314 327 327 324 326 327 330 331 336 339 339 335 336
139 132 134 305 352 285 248 140 179 216 244 217 240 256 218 222 199 193 183 185 187 184 183 187 189 200 217 235 266 287 305 320 327 325 322 321 324 325 326 330 334 331 326 331
139 141 129 91 308 283 293 231 182 208 278 225 229 250 165 111 74 259 204 186 183 178 175 179 183 190 201 228 260 295 314 324 327 323 318 316 316 320 323 327 326 321 322 323
59 99 122 139 222 257 256 159 158 104 284 242 202 202 158 144 191 246 184 172 164 160 160 167 171 180 202 221 242 283 307 317 316 311 308 308 310 317 315 316 316 315 319 323
127 127 161 180 227 263 250 151 142 176 254 216 186 182 171 190 207 179 153 156 155 156 160 164 172 189 205 209 217 265 289 294 296 303 305 307 310 311 306 314 311 315 323 325
175 170 191 165 203 256 194 148 186 219 209 182 191 185 188 193 143 144 155 158 159 161 162 168 178 197 205 203 208 254 274 282 297 305 307 308 308 310 322 317 311 313 316 317
199 193 187 194 219 242 178 202 219 196 203 205 198 192 175 168 171 165 166 165 167 169 172 174 182 194 210 210 209 242 264 291 307 311 308 306 308 306 309 308 307 311 310 312
233 187 191 242 261 251 227 238 244 217 218 212 192 175 172 175 173 170 170 173 174 175 177 174 179 195 212 215 220 232 263 288 302 306 306 307 307 308 311 314 312 311 310 310
209 168 204 250 270 290 264 233 236 226 215 199 183 180 181 172 172 175 176 179 180 181 177 179 188 199 209 210 224 238 252 275 295 302 304 309 312 307 310 316 310 312 305 317
189 182 190 239 230 215 251 234 203 200 206 195 180 180 182 179 177 175 179 179 178 178 175 181 193 203 205 205 223 236 243 253 279 302 311 312 310 314 319 318 320 325 331 333
Height
1572 1578 1585 1584 1584 1584 1585 1589 1591 1593 1595 1599 1600 1598 1599 1600 1602 1603 1604 1606 1607 1608 1609 1608 1607 1604 1601 1597 1593 1589 1584 1579 1573 1567 1560 1553 1547 1542 1536 1531 1525 1519 1513 1506
1580 1584 1583 1582 1582 1584 1586 1589 1591 1594 1595 1597 1597 1596 1595 1596 1597 1598 1600 1602 1604 1606 1606 1606 1605 1602 1598 1594 1590 1586 1581 1576 1570 1564 1557 1551 1544 1538 1532 1527 1521 1515 1508 1502
1581 1585 1583 1583 1584 1585 1587 1588 1590 1593 1596 1597 1598 1592 1595 1594 1595 1597 1598 1600 1602 1603 1604 1604 1602 1599 1596 1592 1588 1584 1579 1573 1567 1561 1554 1547 1541 1534 1528 1521 1515 1509 1503 1497
1585 1584 1584 1585 1586 1586 1588 1588 1589 1592 1597 1600 1598 1600 1587 1593 1594 1593 1594 1596 1598 1600 1601 1601 1599 1597 1593 1590 1586 1581 1576 1571 1565 1558 1551 1544 1537 1530 1524 1517 1510 1505 1499 1493
1586 1585 1585 1586 1587 1586 1587 1587 1589 1592 1595 1600 1601 1604 1589 1593 1593 1589 1589 1592 1595 1597 1598 1598 1596 1594 1591 1587 1583 1579 1574 1569 1562 1556 1549 1542 1535 1528 1521 1514 1507 1501 1495 1489
1586 1586 1586 1586 1586 1586 1587 1589 1593 1598 1601 1600 1595 1602 1587 1592 1586 1583 1584 1587 1591 1594 1595 1595 1594 1591 1588 1585 1581 1577 1572 1566 1560 1554 1547 1540 1533 1525 1518 1510 1503 1497 1491 1485
1587 1587 1586 1586 1586 1587 1588 1593 1599 1596 1599 1596 1595 1595 1584 1578 1579 1579 1580 1583 1588 1591 1592 1592 1591 1589 1586 1583 1579 1574 1569 1563 1557 1551 1544 1538 1531 1523 1516 1509 1502 1495 1488 1482
1591 1593 1588 1587 1588 1590 1590 1592 1601 1604 1605 1602 1596 1594 1579 1578 1578 1577 1578 1581 1585 1588 1589 1589 1588 1586 1583 1580 1576 1571 1566 1560 1554 1548 1542 1536 1529 1522 1515 1509 1502 1495 1488 1481
1594 1592 1588 1587 1588 1588 1591 1598 1597 1606 1607 1609 1597 1587 1577 1579 1578 1578 1578 1580 1583 1585 1586 1586 1585 1583 1581 1578 1573 1569 1563 1558 1552 1546 1540 1533 1527 1520 1514 1508 1501 1494 1487 1479
1595 1597 1590 1589 1589 1590 1591 1597 1604 1606 1605 1605 1596 1588 1579 1573 1576 1577 1577 1577 1580 1582 1583 1583 1582 1581 1578 1575 1571 1567 1561 1556 1550 1545 1538 1532 1526 1519 1513 1506 1499 1493 1486 1478
1595 1599 1594 1590 1590 1590 1594 1597 1601 1608 1608 1609 1606 1584 1568 1566 1566 1569 1570 1573 1576 1579 1580 1580 1579 1578 1576 1573 1569 1564 1559 1554 1548 1543 1537 1530 1524 1518 1511 1505 1498 1491 1484 1477
1597 1601 1600 1592 1589 1588 1589 1591 1599 1601 1603 1611 1613 1585 1564 1563 1562 1563 1565 1569 1573 1576 1577 1577 1577 1575 1573 1570 1566 1562 1557 1552 1547 1541 1535 1529 1523 1516 1510 1503 1497 1491 1484 1477
1596 1600 1599 1591 1593 1591 1590 1590 1593 1599 1605 1613 1611 1578 1563 1561 1561 1561 1563 1566 1570 1572 1573 1574 1574 1572 1570 1567 1564 1560 1555 1551 1545 1540 1534 1528 1521 1515 1509 1502 1496 1490 1484 1477
1593 1598 1599 1593 1588 1588 1588 1589 1593 1596 1601 1602 1595 1570 1557 1560 1560 1559 1561 1563 1566 1569 1570 1571 1570 1569 1567 1565 1562 1558 1554 1549 1544 1539 1533 1527 1520 1514 1508 1502 1497 1490 1484 1478
1593 1597 1595 1593 1590 1590 1588 1586 1588 1590 1587 1587 1574 1568 1551 1551 1552 1553 1556 1560 1563 1565 1566 1567 1567 1566 1565 1562 1560 1556 1552 1548 1543 1537 1532 1526 1520 1514 1508 1502 1497 1491 1485 1479
1593 1595 1595 1591 1586 1588 1587 1580 1582 1582 1581 1578 1571 1560 1546 1546 1546 1548 1552 1555 1558 1560 1562 1563 1563 1563 1562 1560 1557 1554 1550 1546 1541 1536 1531 1525 1520 1514 1508 1502 1497 1491 1485 1480
1594 1594 1593 1592 1587 1582 1575 1562 1570 1569 1567 1565 1561 1548 1544 1545 1544 1544 1546 1550 1553 1556 1558 1560 1560 1560 1559 1557 1555 1552 1548 1545 1540 1536 1531 1525 1519 1514 1508 1502 1497 1491 1486 1480
1592 1594 1598 1598 1588 1576 1557 1555 1556 1557 1553 1552 1547 1541 1541 1540 1540 1541 1543 1545 1549 1552 1555 1556 1557 1556 1556 1555 1553 1550 1547 1543 1539 1535 1530 1525 1519 1514 1508 1502 1497 1491 1486 1481
1588 1592 1598 1600 1592 1579 1557 1552 1554 1555 1549 1539 1539 1536 1538 1538 1539 1538 1539 1542 1546 1549 1551 1553 1553 1553 1553 1552 1550 1548 1546 1542 1538 1534 1529 1524 1519 1514 1508 1502 1496 1491 1486 1481
1591 1592 1599 1601 1590 1579 1551 1550 1550 1553 1549 1531 1531 1531 1534 1538 1542 1534 1533 1537 1541 1545 1547 1549 1550 1550 1550 1550 1548 1546 1544 1541 1537 1532 1528 1523 1519 1514 1508 1503 1497 1491 1486 1481
1593 1595 1598 1598 1593 1569 1547 1547 1551 1554 1538 1526 1525 1525 1527 1528 1528 1528 1529 1533 1537 1541 1543 1545 1546 1547 1547 1547 1546 1544 1542 1539 1535 1531 1527 1523 1518 1514 1509 1503 1498 1492 1487 1481
1579 1588 1592 1594 1594 1565 1540 1543 1543 1531 1521 1521 1520 1520 1520 1521 1523 1525 1527 1530 1533 1536 1539 1542 1543 1544 1544 1544 1543 1542 1540 1537 1534 1530 1526 1522 1518 1513 1508 1503 1498 1492 1487 1481
1563 1559 1561 1561 1546 1528 1526 1522 1519 1518 1517 1516 1516 1516 1516 1517 1518 1521 1524 1527 1530 1533 1536 1538 1540 1541 1541 1541 1541 1540 1538 1536 1533 1529 1526 1522 1517 1513 1508 1502 1497 1491 1486 1480
1550 1548 1550 1549 1529 1520 1518 1515 1514 1513 1511 1510 1511 1511 1511 1512 1514 1517 1520 1523 1526 1529 1532 1535 1536 1537 1538 1538 1538 1537 1536 1534 1531 1528 1525 1521 1516 1512 1507 1502 1496 1490 1485 1479
1535 1541 1542 1537 1521 1514 1508 1506 1505 1505 1505 1504 1504 1505 1506 1507 1510 1513 1515 1519 1522 1525 1528 1531 1533 1534 1535 1535 1535 1535 1534 1532 1530 1527 1524 1520 1516 1511 1506 1501 1496 1490 1485 1481
1523 1526 1529 1517 1506 1507 1501 1500 1500 1499 1498 1497 1497 1498 1500 1502 1505 1508 1511 1514 1518 1521 1524 1527 1529 1530 1531 1532 1532 1532 1531 1530 1528 1525 1522 1518 1514 1510 1505 1499 1495 1491 1486 1480